| time (UTC) | temp F | wind direction | speed MPH | gust MPH | rain 1hr in | rain 24hr in | rain mn in | humidity % | barometer mb |
| 20260906211735 | 88 | 126 | 8.0 | 15.0 | 0.00 | 0.00 | 0.00 | 32 | 1002.1 |
| 20260906210706 | 87 | 126 | 9.0 | 16.0 | 0.00 | 0.00 | 0.00 | 33 | 1002.2 |
| 20260906205704 | 88 | 148 | 8.0 | 16.0 | 0.00 | 0.00 | 0.00 | 32 | 1002.3 |
| 20260906204658 | 90 | 162 | 10.0 | 16.0 | 0.00 | 0.00 | 0.00 | 32 | 1002.4 |
| 20260906203629 | 89 | 182 | 5.0 | 12.0 | 0.00 | 0.00 | 0.00 | 32 | 1002.6 |
| 20260906202630 | 85 | 135 | 3.0 | 8.0 | 0.00 | 0.00 | 0.00 | 35 | 1002.9 |
| 20260906201610 | 87 | 142 | 0.0 | 4.0 | 0.00 | 0.00 | 0.00 | 33 | 1002.9 |
| 20260906195424 | 86 | 89 | 8.0 | 12.0 | 0.00 | 0.00 | 0.00 | 33 | 1002.9 |
| 20260906194411 | 88 | 87 | 4.0 | 12.0 | 0.00 | 0.00 | 0.00 | 33 | 1003.0 |
| 20260906193435 | 87 | 31 | 4.0 | 12.0 | 0.00 | 0.00 | 0.00 | 32 | 1003.1 |
| 20260906192424 | 88 | 79 | 2.0 | 11.0 | 0.00 | 0.00 | 0.00 | 32 | 1003.3 |
| 20260906191446 | 88 | 47 | 6.0 | 18.0 | 0.00 | 0.00 | 0.00 | 31 | 1003.5 |
| 20260906190416 | 88 | 34 | 6.0 | 18.0 | 0.00 | 0.00 | 0.00 | 31 | 1003.6 |
| 20260906185405 | 88 | 32 | 4.0 | 11.0 | 0.00 | 0.00 | 0.00 | 32 | 1003.8 |
| 20260906183211 | 88 | 124 | 4.0 | 9.0 | 0.00 | 0.00 | 0.00 | 33 | 1004.2 |
| 20260906182216 | 88 | 97 | 4.0 | 15.0 | 0.00 | 0.00 | 0.00 | 33 | 1004.2 |
| 20260906181158 | 86 | 19 | 5.0 | 15.0 | 0.00 | 0.00 | 0.00 | 35 | 1004.4 |
| 20260906180132 | 88 | 359 | 3.0 | 10.0 | 0.00 | 0.00 | 0.00 | 33 | 1004.7 |
| 20260906175139 | 87 | 73 | 4.0 | 12.0 | 0.00 | 0.00 | 0.00 | 34 | 1004.8 |
| 20260906174150 | 87 | 85 | 3.0 | 13.0 | 0.00 | 0.00 | 0.00 | 34 | 1004.9 |
| 20260906170745 | 87 | 126 | 4.0 | 10.0 | 0.00 | 0.00 | 0.00 | 33 | 1005.2 |
| 20260906165730 | 87 | 42 | 2.0 | 7.0 | 0.00 | 0.00 | 0.00 | 35 | 1005.3 |
| 20260906164709 | 85 | 34 | 3.0 | 7.0 | 0.00 | 0.00 | 0.00 | 35 | 1005.3 |
| 20260906163646 | 85 | 98 | 3.0 | 9.0 | 0.00 | 0.00 | 0.00 | 35 | 1005.3 |
| 20260906162618 | 84 | 63 | 3.0 | 9.0 | 0.00 | 0.00 | 0.00 | 36 | 1005.3 |
| 20260906161552 | 85 | 64 | 2.0 | 5.0 | 0.00 | 0.00 | 0.00 | 35 | 1005.3 |
| 20260906160548 | 84 | 61 | 4.0 | 9.0 | 0.00 | 0.00 | 0.00 | 36 | 1005.4 |
| 20260906155526 | 85 | 22 | 2.0 | 9.0 | 0.00 | 0.00 | 0.00 | 36 | 1005.4 |
| 20260906154525 | 84 | 45 | 3.0 | 8.0 | 0.00 | 0.00 | 0.00 | 37 | 1005.4 |
| 20260906153505 | 83 | 13 | 4.0 | 9.0 | 0.00 | 0.00 | 0.00 | 38 | 1005.5 |
| 20260906152527 | 83 | 359 | 5.0 | 9.0 | 0.00 | 0.00 | 0.00 | 38 | 1005.4 |
| 20260906151537 | 83 | 344 | 4.0 | 9.0 | 0.00 | 0.00 | 0.00 | 39 | 1005.5 |
| 20260906150520 | 82 | 359 | 4.0 | 9.0 | 0.00 | 0.00 | 0.00 | 40 | 1005.5 |
| 20260906145532 | 81 | 359 | 4.0 | 10.0 | 0.00 | 0.00 | 0.00 | 39 | 1005.6 |
| 20260906144550 | 81 | 353 | 5.0 | 10.0 | 0.00 | 0.00 | 0.00 | 39 | 1005.7 |
| 20260906142422 | 80 | 346 | 4.0 | 7.0 | 0.00 | 0.00 | 0.00 | 40 | 1005.7 |
| 20260906141354 | 79 | 354 | 2.0 | 5.0 | 0.00 | 0.00 | 0.00 | 41 | 1005.6 |
| 20260906140357 | 77 | 4 | 2.0 | 4.0 | 0.00 | 0.00 | 0.00 | 44 | 1005.6 |
| 20260906135336 | 75 | 339 | 1.0 | 3.0 | 0.00 | 0.00 | 0.00 | 46 | 1005.6 |
| 20260906134323 | 75 | 4 | 1.0 | 3.0 | 0.00 | 0.00 | 0.00 | 44 | 1005.6 |
| 20260906132123 | 75 | 353 | 0.0 | 4.0 | 0.00 | 0.00 | 0.00 | 44 | 1005.4 |
| 20260906131143 | 75 | 323 | 2.0 | 4.0 | 0.00 | 0.00 | 0.00 | 45 | 1005.3 |
| 20260906130147 | 74 | 315 | 1.0 | 4.0 | 0.00 | 0.00 | 0.00 | 45 | 1005.2 |
| 20260906124014 | 74 | 335 | 2.0 | 4.0 | 0.00 | 0.00 | 0.00 | 45 | 1005.0 |
| 20260906123012 | 74 | 337 | 2.0 | 5.0 | 0.00 | 0.00 | 0.00 | 45 | 1005.0 |
| 20260906121956 | 74 | 331 | 2.0 | 5.0 | 0.00 | 0.00 | 0.00 | 45 | 1005.0 |
| 20260906120951 | 74 | 333 | 2.0 | 4.0 | 0.00 | 0.00 | 0.00 | 45 | 1005.0 |
| 20260906120002 | 74 | 315 | 2.0 | 4.0 | 0.00 | 0.00 | 0.00 | 45 | 1005.0 |
| 20260906115023 | 74 | 329 | 2.0 | 5.0 | 0.00 | 0.00 | 0.00 | 45 | 1004.9 |
| 20260906112852 | 74 | 334 | 2.0 | 5.0 | 0.00 | 0.00 | 0.00 | 45 | 1005.0 |
| 20260906111903 | 75 | 329 | 2.0 | 5.0 | 0.00 | 0.00 | 0.00 | 45 | 1004.9 |
| 20260906105741 | 74 | 326 | 1.0 | 3.0 | 0.00 | 0.00 | 0.00 | 45 | 1004.9 |
| 20260906104732 | 74 | 322 | 1.0 | 3.0 | 0.00 | 0.00 | 0.00 | 45 | 1004.9 |
| 20260906103756 | 74 | 313 | 2.0 | 4.0 | 0.00 | 0.00 | 0.00 | 45 | 1004.9 |
| 20260906102820 | 74 | 309 | 2.0 | 5.0 | 0.00 | 0.00 | 0.00 | 45 | 1004.8 |
| 20260906101747 | 75 | 299 | 2.0 | 7.0 | 0.00 | 0.00 | 0.00 | 45 | 1004.9 |
| 20260906100800 | 75 | 294 | 4.0 | 7.0 | 0.00 | 0.00 | 0.00 | 45 | 1004.8 |
| 20260906095759 | 74 | 291 | 2.0 | 6.0 | 0.00 | 0.00 | 0.00 | 46 | 1004.8 |
| 20260906094808 | 74 | 270 | 2.0 | 4.0 | 0.00 | 0.00 | 0.00 | 46 | 1004.9 |
| 20260906093800 | 74 | 286 | 2.0 | 4.0 | 0.00 | 0.00 | 0.00 | 46 | 1004.9 |
| 20260906092825 | 74 | 275 | 4.0 | 8.0 | 0.00 | 0.00 | 0.00 | 46 | 1004.9 |
| 20260906091814 | 72 | 262 | 2.0 | 8.0 | 0.00 | 0.00 | 0.00 | 49 | 1005.0 |
| 20260906090749 | 73 | 220 | 2.0 | 0.0 | 0.00 | 0.00 | 0.00 | 49 | 1005.1 |
| 20260906085801 | 72 | 245 | 2.0 | 5.0 | 0.00 | 0.00 | 0.00 | 49 | 1005.2 |
| 20260906084730 | 72 | 250 | 2.0 | 4.0 | 0.00 | 0.00 | 0.00 | 50 | 1005.3 |
| 20260906083754 | 73 | 246 | 2.0 | 10.0 | 0.00 | 0.00 | 0.00 | 50 | 1005.3 |
| 20260906082729 | 72 | 219 | 3.0 | 10.0 | 0.00 | 0.00 | 0.00 | 51 | 1005.4 |
| 20260906080538 | 71 | 222 | 2.0 | 3.0 | 0.00 | 0.00 | 0.00 | 52 | 1005.5 |
| 20260906075520 | 72 | 230 | 1.0 | 5.0 | 0.00 | 0.00 | 0.00 | 51 | 1005.5 |
| 20260906074512 | 72 | 245 | 2.0 | 5.0 | 0.00 | 0.00 | 0.00 | 50 | 1005.6 |
| 20260906073515 | 72 | 254 | 1.0 | 4.0 | 0.00 | 0.00 | 0.00 | 51 | 1005.6 |
| 20260906072533 | 71 | 256 | 2.0 | 4.0 | 0.00 | 0.00 | 0.00 | 51 | 1005.7 |
| 20260906071516 | 71 | 247 | 3.0 | 4.0 | 0.00 | 0.00 | 0.00 | 51 | 1005.9 |
| 20260906070442 | 72 | 237 | 3.0 | 5.0 | 0.00 | 0.00 | 0.00 | 51 | 1006.0 |
| 20260906065507 | 72 | 219 | 4.0 | 5.0 | 0.00 | 0.00 | 0.00 | 51 | 1006.0 |
| 20260906064512 | 72 | 234 | 3.0 | 5.0 | 0.00 | 0.00 | 0.00 | 51 | 1006.1 |
| 20260906063523 | 72 | 228 | 3.0 | 4.0 | 0.00 | 0.00 | 0.00 | 50 | 1006.0 |
| 20260906062514 | 72 | 226 | 3.0 | 4.0 | 0.00 | 0.00 | 0.00 | 50 | 1006.1 |
| 20260906060416 | 73 | 247 | 3.0 | 5.0 | 0.00 | 0.00 | 0.00 | 49 | 1006.1 |
| 20260906054258 | 73 | 236 | 3.0 | 4.0 | 0.00 | 0.00 | 0.00 | 49 | 1006.0 |
| 20260906053237 | 73 | 237 | 3.0 | 4.0 | 0.00 | 0.00 | 0.00 | 49 | 1006.0 |
| 20260906052241 | 73 | 224 | 3.0 | 5.0 | 0.00 | 0.00 | 0.00 | 50 | 1005.9 |
| 20260906051306 | 73 | 214 | 4.0 | 5.0 | 0.00 | 0.00 | 0.00 | 50 | 1005.9 |
| 20260906050320 | 73 | 245 | 3.0 | 5.0 | 0.00 | 0.00 | 0.00 | 49 | 1006.1 |
| 20260906045311 | 73 | 237 | 2.0 | 4.0 | 0.00 | 0.00 | 0.00 | 49 | 1006.0 |
| 20260906044321 | 73 | 192 | 1.0 | 4.0 | 0.00 | 0.00 | 0.00 | 48 | 1006.0 |
| 20260906043337 | 74 | 199 | 2.0 | 4.0 | 0.00 | 0.00 | 0.00 | 47 | 1006.2 |
| 20260906042316 | 74 | 221 | 2.0 | 3.0 | 0.00 | 0.00 | 0.00 | 47 | 1006.1 |
| 20260906041329 | 75 | 221 | 2.0 | 3.0 | 0.00 | 0.00 | 0.00 | 45 | 1006.1 |
| 20260906040354 | 75 | 225 | 2.0 | 3.0 | 0.00 | 0.00 | 0.00 | 45 | 1006.2 |
| 20260906035410 | 75 | 231 | 1.0 | 3.0 | 0.00 | 0.00 | 0.00 | 45 | 1006.2 |
| 20260906034355 | 76 | 261 | 2.0 | 4.0 | 0.00 | 0.00 | 0.00 | 44 | 1006.1 |
| 20260906033350 | 75 | 281 | 3.0 | 4.0 | 0.00 | 0.00 | 0.00 | 44 | 1006.0 |
| 20260906032356 | 75 | 296 | 2.0 | 4.0 | 0.00 | 0.00 | 0.00 | 46 | 1005.8 |
| 20260906031327 | 75 | 50 | 0.0 | 1.0 | 0.00 | 0.00 | 0.00 | 47 | 1005.8 |
| 20260906030344 | 75 | 50 | 0.0 | 1.0 | 0.00 | 0.00 | 0.00 | 49 | 1005.7 |
| 20260906025342 | 74 | 50 | 0.0 | 1.0 | 0.00 | 0.00 | 0.00 | 50 | 1005.7 |
| 20260906024347 | 75 | 50 | 0.0 | 0.0 | 0.00 | 0.00 | 0.00 | 51 | 1005.5 |
| 20260906023359 | 75 | 49 | 0.0 | 1.0 | 0.00 | 0.00 | 0.00 | 50 | 1005.3 |
| 20260906022335 | 75 | 49 | 0.0 | 0.0 | 0.00 | 0.00 | 0.00 | 49 | 1005.3 |
| 20260906021335 | 76 | 50 | 0.0 | 1.0 | 0.00 | 0.00 | 0.00 | 49 | 1005.2 |
| 20260906020348 | 76 | 50 | 0.0 | 0.0 | 0.00 | 0.00 | 0.00 | 48 | 1005.0 |
| 20260906015352 | 76 | 50 | 0.0 | 1.0 | 0.00 | 0.00 | 0.00 | 48 | 1005.0 |
| 20260906013309 | 78 | 49 | 0.0 | 0.0 | 0.00 | 0.00 | 0.00 | 46 | 1005.1 |
| 20260906012306 | 78 | 49 | 0.0 | 0.0 | 0.00 | 0.00 | 0.00 | 45 | 1005.0 |
| 20260906011241 | 79 | 50 | 0.0 | 0.0 | 0.00 | 0.00 | 0.00 | 46 | 1005.0 |
| 20260906010253 | 79 | 49 | 0.0 | 4.0 | 0.00 | 0.00 | 0.00 | 47 | 1005.1 |
| 20260906005238 | 79 | 32 | 2.0 | 4.0 | 0.00 | 0.00 | 0.00 | 47 | 1005.2 |
| 20260906004215 | 78 | 346 | 1.0 | 5.0 | 0.00 | 0.00 | 0.00 | 48 | 1005.2 |
| 20260906003208 | 77 | 344 | 2.0 | 5.0 | 0.00 | 0.00 | 0.00 | 54 | 1005.3 |
| 20260906002227 | 75 | 4 | 2.0 | 4.0 | 0.00 | 0.00 | 0.00 | 61 | 1005.3 |
| 20260906001228 | 75 | 107 | 0.0 | 1.0 | 0.00 | 0.00 | 0.00 | 59 | 1005.5 |
| 20260906000156 | 75 | 150 | 1.0 | 4.0 | 0.00 | 0.00 | 0.00 | 59 | 1005.8 |
| 20260905235208 | 76 | 177 | 3.0 | 9.0 | 0.00 | 0.00 | 0.00 | 52 | 1005.8 |
| 20260905233032 | 76 | 276 | 5.0 | 12.0 | 0.00 | 0.00 | 0.00 | 50 | 1005.5 |
| 20260905230809 | 74 | 260 | 11.0 | 18.0 | 0.00 | 0.00 | 0.00 | 54 | 1005.0 |
| 20260905225817 | 74 | 304 | 13.0 | 22.0 | 0.00 | 0.00 | 0.00 | 54 | 1004.9 |
| 20260905224817 | 76 | 314 | 13.0 | 22.0 | 0.00 | 0.00 | 0.00 | 53 | 1005.0 |
| 20260905223832 | 83 | 313 | 7.0 | 17.0 | 0.00 | 0.00 | 0.00 | 41 | 1004.9 |
| 20260905222812 | 85 | 9 | 4.0 | 9.0 | 0.00 | 0.00 | 0.00 | 37 | 1004.7 |
| 20260905221802 | 87 | 108 | 2.0 | 9.0 | 0.00 | 0.00 | 0.00 | 32 | 1004.7 |
| 20260905220733 | 87 | 153 | 2.0 | 15.0 | 0.00 | 0.00 | 0.00 | 33 | 1004.8 |
| 20260905215738 | 87 | 189 | 7.0 | 15.0 | 0.00 | 0.00 | 0.00 | 34 | 1004.9 |
| 20260905213615 | 86 | 19 | 4.0 | 10.0 | 0.00 | 0.00 | 0.00 | 34 | 1005.0 |
| 20260905212625 | 86 | 44 | 2.0 | 9.0 | 0.00 | 0.00 | 0.00 | 34 | 1005.3 |